CW0762 Weather Reports


Display with metric or nautical units.
time (UTC)temp
F
wind
direction
speed
MPH
gust
MPH
rain 1hr
in
rain 24hr
in
rain mn
in
humidity
%
barometer
mb
20260510061530 76 273 4.0 12.0 0.00 0.00 0.00 74 1012.3
20260510060024 76 272 4.0 10.0 0.00 0.00 0.00 71 1012.6
20260510054519 76 57 0.0 2.0 0.00 0.00 0.00 68 1011.1
20260510053016 76 59 1.0 4.0 0.00 0.00 0.00 67 1009.5
20260510051527 76 59 0.0 4.0 0.00 0.00 0.00 67 1009.5
20260510050012 76 60 0.0 4.0 0.00 0.00 0.00 67 1009.3
20260510044512 76 60 0.0 3.0 0.00 0.00 0.00 67 1009.0
20260510043019 76 57 0.0 4.0 0.00 0.00 0.00 68 1008.9
20260510041511 76 55 1.0 4.0 0.00 0.00 0.00 68 1008.9
20260510040011 76 39 0.0 2.0 0.00 0.00 0.00 67 1009.2
20260510034510 76 39 0.0 1.0 0.00 0.00 0.00 66 1009.3
20260510033010 76 38 0.0 2.0 0.00 0.00 0.00 65 1009.3
20260510031510 77 38 0.0 0.0 0.00 0.00 0.00 63 1009.5
20260510030012 78 38 0.0 0.0 0.00 0.00 0.00 62 1009.5
20260510024508 78 38 0.0 1.0 0.00 0.00 0.00 61 1009.4
20260510023008 79 38 0.0 1.0 0.00 0.00 0.00 59 1009.4
20260510021513 79 38 0.0 1.0 0.00 0.00 0.00 59 1009.2
20260510020007 80 38 0.0 2.0 0.00 0.00 0.00 58 1008.9
20260510014508 80 331 0.0 1.0 0.00 0.00 0.00 57 1008.8
20260510013007 81 314 0.0 3.0 0.00 0.00 0.00 57 1008.7
20260510011507 82 80 0.0 2.0 0.00 0.00 0.00 58 1008.4
20260510010006 83 87 0.0 3.0 0.00 0.00 0.00 58 1008.2
20260510004505 84 293 0.0 3.0 0.00 0.00 0.00 58 1008.2
20260510003006 85 30 0.0 3.0 0.00 0.00 0.00 57 1008.0
20260510001507 85 78 0.0 5.0 0.00 0.00 0.00 57 1008.1
20260510000011 86 301 0.0 3.0 0.00 0.00 0.00 55 1008.1
20260509234507 87 355 0.0 3.0 0.00 0.00 0.00 53 1008.2
20260509233003 88 327 0.0 2.0 0.00 0.00 0.00 49 1008.3
20260509231503 89 360 0.0 2.0 0.00 0.00 0.00 46 1008.3
20260509230002 89 355 0.0 3.0 0.00 0.00 0.00 45 1008.3
20260509224502 89 345 0.0 1.0 0.00 0.00 0.00 46 1008.2
20260509223001 89 15 0.0 3.0 0.00 0.00 0.00 46 1008.2
20260509221501 89 307 0.0 1.0 0.00 0.00 0.00 45 1008.3
20260509214600 90 279 0.0 2.0 0.00 0.00 0.00 44 1008.4
20260509213059 90 281 0.0 3.0 0.00 0.00 0.00 45 1008.5
20260509211601 90 300 0.0 2.0 0.00 0.00 0.00 47 1008.8
20260509210107 90 286 0.0 2.0 0.00 0.00 0.00 47 1009.1
20260509204555 89 300 0.0 3.0 0.00 0.00 0.00 49 1009.2
20260509203054 89 13 0.0 2.0 0.00 0.00 0.00 51 1009.5
20260509201553 89 270 0.0 4.0 0.00 0.00 0.00 50 1009.7
20260509200054 89 338 0.0 3.0 0.00 0.00 0.00 51 1009.8
20260509194551 89 48 1.0 4.0 0.00 0.00 0.00 53 1010.0
20260509193051 88 290 0.0 3.0 0.00 0.00 0.00 53 1010.2
20260509191550 88 312 0.0 3.0 0.00 0.00 0.00 55 1010.2
20260509190050 88 279 0.0 3.0 0.00 0.00 0.00 56 1010.4
20260509184545 87 257 0.0 3.0 0.00 0.00 0.00 58 1010.4
20260509183045 86 274 0.0 2.0 0.00 0.00 0.00 61 1010.7
20260509181545 87 238 0.0 5.0 0.00 0.00 0.00 60 1010.7
20260509180043 87 287 0.0 3.0 0.00 0.00 0.00 61 1010.8
20260509174542 86 355 0.0 4.0 0.00 0.00 0.00 59 1010.9
20260509173103 85 279 0.0 3.0 0.00 0.00 0.00 62 1011.0
20260509171541 84 304 0.0 3.0 0.00 0.00 0.00 60 1011.3
20260509170035 84 281 0.0 3.0 0.00 0.00 0.00 62 1011.3
20260509164530 83 281 1.0 3.0 0.00 0.00 0.00 63 1011.3
20260509163028 82 265 0.0 3.0 0.00 0.00 0.00 64 1011.4
20260509161527 81 275 0.0 4.0 0.00 0.00 0.00 65 1011.4
20260509160024 80 115 0.0 7.0 0.00 0.00 0.00 66 1011.4
20260509154521 79 263 1.0 3.0 0.00 0.00 0.00 67 1011.2
20260509153029 78 355 0.0 3.0 0.00 0.00 0.00 69 1011.3
20260509151515 77 305 0.0 2.0 0.00 0.00 0.00 72 1011.5
20260509150011 76 283 0.0 4.0 0.00 0.00 0.00 75 1011.4
20260509144507 75 28 0.0 2.0 0.00 0.00 0.00 78 1011.4
20260509143010 74 46 0.0 4.0 0.00 0.00 0.00 82 1011.3
20260509141501 73 339 0.0 2.0 0.00 0.00 0.00 85 1011.4
20260509140100 72 319 0.0 1.0 0.00 0.00 0.00 87 1011.4
20260509134555 71 287 0.0 3.0 0.00 0.00 0.00 90 1011.3
20260509133054 69 290 0.0 3.0 0.00 0.00 0.00 92 1011.3
20260509131602 69 286 0.0 2.0 0.00 0.00 0.00 93 1011.2
20260509130124 68 270 0.0 2.0 0.00 0.00 0.00 93 1011.3
20260509124553 68 265 0.0 3.0 0.00 0.08 0.00 94 1011.2
20260509123118 67 78 0.0 4.0 0.00 0.08 0.00 94 1011.3
20260509121551 67 42 0.0 1.0 0.00 0.08 0.00 94 1011.2
20260509120053 67 56 0.0 1.0 0.00 0.08 0.00 93 1011.0
20260509114624 67 53 0.0 2.0 0.00 0.08 0.00 93 1011.0
20260509113058 67 67 0.0 1.0 0.00 0.08 0.00 92 1010.6
20260509111551 67 67 0.0 1.0 0.00 0.08 0.00 92 1010.1
20260509110058 67 346 0.0 1.0 0.00 0.08 0.00 91 1009.9
20260509104547 68 347 0.0 1.0 0.00 0.32 0.00 91 1009.5
20260509103048 68 341 0.0 1.0 0.00 0.32 0.00 90 1009.3
20260509101556 68 341 0.0 1.0 0.00 0.32 0.00 90 1009.3
20260509100043 69 341 0.0 1.0 0.00 0.32 0.00 89 1009.2
20260509094542 69 340 0.0 3.0 0.00 0.32 0.00 89 1009.0
20260509093042 70 62 0.0 0.0 0.00 0.32 0.00 88 1008.8
20260509091544 70 62 0.0 0.0 0.00 0.32 0.00 89 1008.5
20260509090043 70 62 0.0 1.0 0.00 0.32 0.00 89 1008.8
20260509084541 70 82 0.0 5.0 0.00 0.33 0.00 89 1008.5
20260509083040 70 65 0.0 6.0 0.00 0.33 0.00 89 1006.8
20260509081537 70 58 3.0 7.0 0.00 0.33 0.00 90 1007.2
20260509080033 70 60 1.0 9.0 0.00 0.33 0.00 90 1008.1
20260509074529 70 145 2.0 7.0 0.00 0.35 0.00 90 1009.1
20260509073027 70 130 4.0 9.0 0.00 0.35 0.00 90 1010.0
20260509071524 69 132 2.0 9.0 0.00 0.35 0.00 91 1010.3
20260509070022 69 129 3.0 9.0 0.00 0.35 0.00 91 1010.7
20260509064520 69 125 2.0 6.0 0.00 0.35 0.00 91 1011.1
20260509063027 69 107 0.0 4.0 0.00 0.35 0.00 90 1011.4